Waterloo, IA

5:49 AM CDT on June 25, 2017 (GMT -0500)
Waterloo Municipal

Weather History for KALO - June, 2013

Change the Weather History Date:

Saturday, June 15, 2013

  Actual Average Record
Temperature  
Mean Temperature 71 °F 70 °F  
Max Temperature 78 °F 81 °F 95 °F (1933)
Min Temperature 64 °F 59 °F 39 °F (1917)
Degree Days  
Heating Degree Days 0 1  
Month to date heating degree days 38 20  
Since 1 June heating degree days 38 20  
Since 1 July heating degree days 7271 7024  
Cooling Degree Days 6 6  
Month to date cooling degree days 36 66  
Year to date cooling degree days 89 122  
Since 1 June cooling degree days 36 66  
Growing Degree Days 21 (Base 50)    
Moisture  
Dew Point 65 °F    
Average Humidity 80    
Maximum Humidity 93    
Minimum Humidity 67    
Precipitation  
Precipitation 0.15 in 0.16 in 4.35 in (1980)
Month to date precipitation 2.30 2.44  
Year to date precipitation 25.88 14.56  
Snow  
Snow 0.00 in 0.00 in - ()
Month to date snowfall 0.0 0.0  
Since 1 June snowfall 0.0 0.0  
Since 1 July snowfall 50.0 35.3  
Snow Depth 0.00 in    
Sea Level Pressure  
Sea Level Pressure 29.91 in    
Wind  
Wind Speed 9 mph (SSW)    
Max Wind Speed 24 mph    
Max Gust Speed 39 mph    
Visibility 10 miles    
Events Rain , Thunderstorm    
T = Trace of Precipitation, MM = Missing Value Source: NWS Daily Summary

Daily Weather History Graph

Daily Weather History Graph

Search for Another Location

Airport or City:

Trip Planner

Search our weather history database for the weather conditions in past years. The results will help you decide how hot, cold, wet, or windy it might be!

Date:

Astronomy

Jun. 15, 2013 Rise Set
Actual Time 5:31 AM CDT 8:49 PM CDT
Civil Twilight 4:56 AM CDT 9:23 PM CDT
Nautical Twilight 4:11 AM CDT 10:09 PM CDT
Astronomical Twilight 3:16 AM CDT 11:04 PM CDT
Moon 12:14 PM CDT (6/15) 12:17 AM CDT (6/15)
Length of Visible Light 16h 27m
Length of Day
15h 17m
Waxing Crescent, 40% of the Moon is Illuminated
Jun 15
Waxing Crescent
Jun 16
First Quarter
Jun 23
Full
Jun 29
Last Quarter
Jul 8
New

Hourly Weather History & Observations

Time (CDT) Temp. Dew Point Humidity Pressure Visibility Wind Dir Wind Speed Gust Speed Precip Events Conditions
12:54 AM 64.9 °F 62.1 °F 90% 29.99 in 7.0 mi Calm Calm - 0.04 in Rain , Thunderstorm Rain
1:16 AM 64.4 °F 62.6 °F 94% 29.98 in 8.0 mi SSW 6.9 mph - 0.04 in Rain Light Rain
1:54 AM 64.9 °F 63.0 °F 93% 29.97 in 10.0 mi SSE 6.9 mph - 0.07 in Rain Light Rain
2:54 AM 64.9 °F 63.0 °F 93% 29.93 in 10.0 mi South 9.2 mph - 0.04 in Rain Light Rain
3:54 AM 64.9 °F 63.0 °F 93% 29.88 in 10.0 mi SSE 10.4 mph - 0.03 in Rain Light Rain
4:37 AM 64.4 °F 62.6 °F 94% 29.89 in 10.0 mi ESE 10.4 mph 16.1 mph 0.01 in Rain Light Rain
4:54 AM 64.9 °F 63.0 °F 93% 29.87 in 10.0 mi ESE 5.8 mph - 0.01 in   Mostly Cloudy
5:30 AM 64.4 °F 64.4 °F 100% 29.94 in 10.0 mi WSW 6.9 mph - N/A   Mostly Cloudy
5:54 AM 64.9 °F 63.0 °F 93% 29.94 in 10.0 mi Calm Calm - N/A   Overcast
6:27 AM 64.4 °F 62.6 °F 94% 29.94 in 9.0 mi East 6.9 mph - N/A   Scattered Clouds
6:54 AM 64.9 °F 63.0 °F 93% 29.92 in 10.0 mi Variable 4.6 mph - N/A   Clear
7:54 AM 66.9 °F 64.0 °F 90% 29.94 in 10.0 mi South 4.6 mph - N/A   Clear
8:54 AM 70.0 °F 64.9 °F 84% 29.92 in 10.0 mi South 9.2 mph - N/A   Partly Cloudy
9:54 AM 73.9 °F 64.9 °F 73% 29.92 in 10.0 mi South 11.5 mph - N/A   Scattered Clouds
10:54 AM 75.0 °F 66.0 °F 73% 29.92 in 10.0 mi South 12.7 mph - N/A   Overcast
11:54 AM 75.0 °F 64.0 °F 69% 29.94 in 10.0 mi SSW 16.1 mph 19.6 mph N/A   Mostly Cloudy
12:37 PM 73.4 °F 66.2 °F 78% 29.94 in 10.0 mi SSW 3.5 mph - N/A Thunderstorm Mostly Cloudy
12:52 PM 73.4 °F 66.2 °F 78% 29.95 in 10.0 mi SW 6.9 mph - 0.00 in Rain Light Rain
12:54 PM 73.0 °F 66.9 °F 81% 29.93 in 10.0 mi SW 5.8 mph - 0.00 in Rain Light Rain
1:54 PM 73.0 °F 66.0 °F 79% 29.94 in 10.0 mi SW 11.5 mph - 0.00 in   Mostly Cloudy
2:35 PM 73.4 °F 66.2 °F 78% 29.94 in 10.0 mi WSW 9.2 mph - 0.00 in   Mostly Cloudy
2:54 PM 73.0 °F 66.9 °F 81% 29.87 in 8.0 mi SE 9.2 mph - 0.01 in Rain Light Rain
3:01 PM 73.4 °F 68.0 °F 83% 29.85 in 10.0 mi SE 12.7 mph - 0.00 in Rain Light Rain
3:54 PM 78.1 °F 69.1 °F 74% 29.84 in 10.0 mi South 16.1 mph 21.9 mph 0.00 in   Clear
4:54 PM 78.1 °F 66.9 °F 68% 29.83 in 10.0 mi South 13.8 mph - N/A   Clear
5:54 PM 77.0 °F 66.9 °F 71% 29.84 in 10.0 mi SSW 10.4 mph - N/A   Partly Cloudy
6:54 PM 77.0 °F 68.0 °F 74% 29.86 in 10.0 mi SW 9.2 mph - N/A   Mostly Cloudy
7:54 PM 75.9 °F 69.1 °F 79% 29.86 in 10.0 mi South 6.9 mph - N/A   Mostly Cloudy
8:54 PM 73.9 °F 69.1 °F 85% 29.86 in 10.0 mi West 4.6 mph - 0.00 in   Partly Cloudy
9:54 PM 71.1 °F 69.1 °F 93% 29.88 in 10.0 mi SW 5.8 mph - N/A   Clear
10:54 PM 71.1 °F 63.0 °F 75% 29.91 in 10.0 mi SW 17.3 mph 26.5 mph N/A   Mostly Cloudy
11:08 PM 71.6 °F 62.6 °F 73% 29.92 in 10.0 mi SW 13.8 mph 31.1 mph N/A   Mostly Cloudy
11:54 PM 69.1 °F 63.0 °F 81% 29.90 in 10.0 mi SW 13.8 mph - N/A   Clear